Weather History for Rochester, NY

Change the Weather History Date:

Monday, June 17, 2013

  Actual Average Record
Temperature  
Mean Temperature 70 °F 67 °F  
Max Temperature 79 °F 77 °F 94 °F (1994)
Min Temperature 60 °F 57 °F 41 °F (1980)
Degree Days  
Heating Degree Days 0 2  
Month to date heating degree days 46 54  
Since 1 June heating degree days 46 54  
Since 1 July heating degree days 6044 6632  
Cooling Degree Days 5 4  
Month to date cooling degree days 26 44  
Year to date cooling degree days 97 74  
Since 1 June cooling degree days 26 44  
Growing Degree Days 20 (Base 50)    
Moisture  
Dew Point 60 °F    
Average Humidity 75    
Maximum Humidity 97    
Minimum Humidity 52    
Precipitation  
Precipitation 0.22 in 0.12 in 1.70 in (1922)
Month to date precipitation 4.92 1.84  
Year to date precipitation 16.75 14.30  
Snow  
Snow 0.00 in 0.00 in 0.00 in ()
Month to date snowfall 0.0 0.0  
Since 1 June snowfall 0.0 0.0  
Since 1 July snowfall 78.1 99.5  
Snow Depth 0.00 in    
Sea Level Pressure  
Sea Level Pressure 29.87 in    
Wind  
Wind Speed 7 mph (WNW)    
Max Wind Speed 18 mph    
Max Gust Speed 26 mph    
Visibility 10 miles    
Events Rain , Thunderstorm    
T = Trace of Precipitation, MM = Missing Value Source: NWS Daily Summary

Daily Weather History Graph

Daily Weather History Graph

Search for Another Location

Airport:

Trip Planner

Search our weather history database for the weather conditions in past years. The results will help you decide how hot, cold, wet, or windy it might be!

Date:

Astronomy

Jun. 17, 2013 Rise Set
Actual Time 5:30 AM EDT 8:52 PM EDT
Civil Twilight 4:55 AM EDT 9:28 PM EDT
Nautical Twilight 4:08 AM EDT 10:14 PM EDT
Astronomical Twilight 3:11 AM EDT 11:12 PM EDT
Moon 2:21 PM EDT (6/17) 1:14 AM EDT (6/17)
Length of Visible Light 16h 33m
Length of Day
15h 22m
First Quarter, 60% of the Moon is Illuminated
Jun 17
First Quarter
Jun 23
Full
Jun 30
Last Quarter
Jul 8
New
Jul 15
First Quarter

Hourly Weather History & Observations

Time (EDT) Temp. Dew Point Humidity Pressure Visibility Wind Dir Wind Speed Gust Speed Precip Events Conditions
12:54 AM 64.0 °F 61.0 °F 90% 29.83 in 10.0 mi SW 11.5 mph - N/A   Scattered Clouds
1:54 AM 66.9 °F 61.0 °F 81% 29.84 in 10.0 mi NNW 5.8 mph - N/A   Scattered Clouds
2:01 AM 66.2 °F 60.8 °F 83% 29.83 in 10.0 mi NNW 4.6 mph - N/A   Mostly Cloudy
2:54 AM 64.9 °F 60.1 °F 84% 29.84 in 10.0 mi SSW 3.5 mph - N/A   Mostly Cloudy
3:54 AM 61.0 °F 59.0 °F 93% 29.84 in 10.0 mi SW 4.6 mph - N/A   Scattered Clouds
4:54 AM 60.1 °F 59.0 °F 96% 29.83 in 8.0 mi SSW 3.5 mph - N/A   Scattered Clouds
5:54 AM 60.1 °F 59.0 °F 96% 29.86 in 7.0 mi WSW 5.8 mph - N/A   Partly Cloudy
6:54 AM 64.0 °F 61.0 °F 90% 29.86 in 10.0 mi SW 5.8 mph - N/A   Partly Cloudy
7:54 AM 66.0 °F 62.1 °F 87% 29.87 in 10.0 mi WSW 6.9 mph - N/A   Partly Cloudy
8:54 AM 72.0 °F 62.1 °F 71% 29.86 in 10.0 mi West 12.7 mph - N/A   Scattered Clouds
9:54 AM 73.9 °F 62.1 °F 66% 29.85 in 10.0 mi WSW 11.5 mph - N/A   Partly Cloudy
10:54 AM 77.0 °F 60.1 °F 56% 29.85 in 10.0 mi West 13.8 mph - N/A   Scattered Clouds
11:54 AM 75.9 °F 61.0 °F 60% 29.88 in 10.0 mi WNW 13.8 mph 20.7 mph N/A   Mostly Cloudy
12:54 PM 77.0 °F 60.1 °F 56% 29.88 in 10.0 mi WNW 13.8 mph 20.7 mph N/A   Scattered Clouds
1:54 PM 78.1 °F 59.0 °F 52% 29.87 in 10.0 mi West 11.5 mph 21.9 mph N/A   Mostly Cloudy
2:24 PM 71.6 °F 62.6 °F 73% 29.87 in 6.0 mi North 13.8 mph - 0.00 in Rain , Thunderstorm Light Thunderstorms and Rain
2:54 PM 72.0 °F 64.0 °F 76% 29.89 in 10.0 mi Calm Calm - 0.22 in   Mostly Cloudy
3:54 PM 72.0 °F 64.0 °F 76% 29.88 in 10.0 mi West 8.1 mph - 0.00 in   Mostly Cloudy
4:54 PM 77.0 °F 59.0 °F 54% 29.88 in 10.0 mi North 11.5 mph - N/A   Mostly Cloudy
5:54 PM 75.0 °F 57.9 °F 55% 29.89 in 10.0 mi NNW 10.4 mph - N/A   Mostly Cloudy
6:54 PM 73.9 °F 57.9 °F 57% 29.89 in 10.0 mi North 9.2 mph - N/A   Mostly Cloudy
7:54 PM 71.1 °F 55.0 °F 57% 29.90 in 10.0 mi North 6.9 mph - N/A   Mostly Cloudy
8:54 PM 69.1 °F 55.9 °F 63% 29.91 in 10.0 mi North 4.6 mph - N/A   Mostly Cloudy
9:54 PM 66.0 °F 57.9 °F 75% 29.93 in 10.0 mi Calm Calm - N/A   Mostly Cloudy
10:54 PM 63.0 °F 59.0 °F 87% 29.94 in 10.0 mi Calm Calm - 0.00 in   Mostly Cloudy
11:54 PM 61.0 °F 57.9 °F 90% 29.93 in 10.0 mi Calm Calm - N/A   Mostly Cloudy